Regional Weather Roundup
Issued by NWS Wakefield, VA

Home | Current Version | Previous Version | Graphics & Text | Print | Product List | Glossary On
Versions: 1 2 3 4 5 6 7 8 9 10 11 12 13 14 15 16 17 18 19 20 21 22 23 24 25 26 27 28 29 30 31 32 33 34 35 36 37 38 39 40 41 42 43 44 45 46 47 48 49 50
000
ASUS41 KAKQ 052210
RWRAKQ

REGIONAL WEATHER ROUNDUP
NATIONAL WEATHER SERVICE WAKEFIELD VA
500 PM EST THU MAR 05 2015

Note: "fair" indicates few or no clouds below 12,000 feet with no
significant weather and/or obstructions to visibility. * = Denotes
station may not report precipitation (e.g., rain,snow,etc.),
thunder or fog.

VAZ042-051-052>054-056-052300-
NORTHERN VIRGINIA

CITY           SKY/WX    TMP DP  RH WIND       PRES   REMARKS
WASH NATIONAL  LGT SNOW  29  24  82 N13       30.25R VSB 1   WCI  19
DULLES         LGT SNOW  24  20  84 N9        30.24R FOG
FORT BELVOIR   LGT SNOW  27  23  86 NW10      30.25S FOG     WCI  17
QUANTICO       LGT SNOW  27  23  85 N12G18    30.26R VSB 3/4 WCI  17
FREDERICKSBRG* SNOW      28  28 100 NW13      30.23R VSB 1/2 WCI  18
STAFFORD*      LGT SNOW  26  32 100 CALM      30.28R
WARRENTON      FLURRIES  27  26  94 NW8       30.23F
CULPEPER*      FLURRIES  27  21  80 N8        30.24
MANASSAS*      NOT AVBL
LEESBURG*      FLURRIES  27  27 100 N12       30.26R WCI  16
WINCHESTER     CLOUDY    27  19  74 N9        30.25R
FRONT ROYAL*   CLOUDY    25  21  86 CALM      30.23S
LURAY*         LGT SNOW  27  27 100 NE3       30.22R
$$

VAZ048-049-060>072-079>083-052300-
CENTRAL AND SOUTH CENTRAL VIRGINIA

CITY           SKY/WX    TMP DP  RH WIND       PRES   REMARKS
RICHMOND       LGTSLEET  31  27  85 N18G28    30.17R FOG     WCI  19
CHESTERFIELD*  CLOUDY    30  19  64 N7        30.17R
PETERSBURG*    MIX PCPN  33  32  95 N13       30.16R WCI  24
HANOVER        LGT SNOW  28  26  92 N8G17     30.20R FOG
TAPPAHANNOCK*  LGT SNOW  31  29  92 NW10      30.20R VSB 3/4 WCI  22
QUINTON*       CLOUDY    31  29  94 NW7       30.18R
CHARLOTTSVILLE CLOUDY    27  23  85 N8        30.22R FOG
GORDONSVILLE*  CLOUDY    26  22  86 N8        30.23R
ORANGE*        CLOUDY    28  27  93 NW9       30.24R
LOUISA*        LGT SNOW  27  25  93 N12       30.20R WCI  16
BUMPASS*       CLOUDY    27  25  93 N8G16     30.20R VSB 1/2
FARMVILLE*     LGT SNOW  32  32 100 N12G17      N/A  WCI  23
CREWE*         CLOUDY    31  28  90 N9G17     30.15R
FORT PICKETT*  CLOUDY    32  30  94 N13G18    30.13R WCI  22
CHASE CITY*    CLOUDY    34  34 100 N6        30.12S
CLARKSVILLE*   CLOUDY    32  32 100 NE7G16    30.10S
SOUTH HILL*    CLOUDY    32  31  96 N15       30.17R WCI  22
LAWRENCEVILLE* CLOUDY    32  32  98 N5        30.12R
EMPORIA*       LGT SNOW  32  32 100 N8G20     30.15R
$$

VAZ088>098-052300-
SOUTHEAST VIRGINIA

CITY           SKY/WX    TMP DP  RH WIND       PRES   REMARKS
NORFOLK        LGT SNOW  33  31  92 N20G26    30.10S FOG     WCI  21
VIRGINIA BEACH LGT RAIN  36  33  89 NE10      30.11R FOG
NORFOLK NAVAL  LGT RAIN  35  31  85 N22       30.11F FOG     WCI  23
WEST POINT*    CLOUDY    34  32  91 N8        30.16S
SALUDA*        CLOUDY    31  29  92 N13G21    30.13F WCI  22
NEWPORT NEWS   LGT RAIN  36  31  82 N13       30.12S
LANGLEY AFB    MIX PCPN  33  31  93 NE13G23   30.10F FOG     WCI  24
FORT EUSTIS    RAIN      33  33 100 NE8       30.09R FOG
WILLIAMSBURG*  CLOUDY    36  34  93 NE5       30.13R
HR EXEC AP*    CLOUDY    34  30  86 NE13G23   30.10F WCI  25
FRANKLIN*      RAIN      33  32  95 N9        30.10F
WAKEFIELD      RAIN      34  31  88 N6        30.11R FOG
$$

VAZ020-022-025-037-045-052300-
WEST CENTRAL AND SOUTHWEST VIRGINIA

CITY           SKY/WX    TMP DP  RH WIND       PRES   REMARKS
STAUNTON*      CLOUDY    25  21  85 N10       30.21R WCI  15
WAYNESBORO*    CLOUDY    24  22  92 N8        30.17R
HOT SPRINGS VA FOG       21  21 100 NW3       30.00R VSB 1/4
LYNCHBURG      LGT SNOW  29  28  96 NE10      30.16R FOG     WCI  20
DANVILLE       CLOUDY    35  31  85 NE8G17    30.15R
SOUTH BOSTON*  CLOUDY    32  30  92 N12G21    30.16R WCI  23
MARTINSVILLE   LGT RAIN  35  35 100 N7        30.17R
ROANOKE        CLOUDY    32  26  78 N6        30.19R HAZE
BLACKSBURG     LGT SNOW  26  24  90 W7        30.16R
DUBLIN*        CLOUDY    28  24  88 N5        30.17R
MARION*        CLOUDY    27  22  83 W8        30.19R
HILLSVILLE*    CLOUDY    27  25  93 NW10      30.11R WCI  17
RICHLANDS*     LGT SNOW  21  18  91 NW6       30.20R
WISE*          MIX PCPN  21  19  93 NW9       30.23R
ABINGDON*      MIX PCPN  27  24  91 N6        30.22R
$$

MDZ021>025-VAZ099-100-052300-
SOUTHERN MARYLAND AND THE DELMARVA PENINSULA

CITY           SKY/WX    TMP DP  RH WIND       PRES   REMARKS
PATUXENT RIVER HVY SNOW  28  26  92 N18       30.19R VSB 1/4 WCI  15
BAY BRIDGE APT LGT SNOW  27  23  86 N10G18    30.25R VSB 1   WCI  17
LEONARDTOWN    CLOUDY    28  27  93 CALM      30.22R VSB 1/4
DOVER          SNOW      23  23 100 N18       30.22R VSB 1/2 WCI   9
GEORGETOWN     HVY SNOW  26  24  92 N10G17    30.20R VSB 1/4 WCI  16
EASTON         SNOW      27  27 100 N12G23    30.26R VSB 1/2 WCI  16
CAMBRIDGE      CLOUDY    30  28  93 N12G17    30.20R VSB 3/4 WCI  21
SALISBURY      HVY SNOW  30  26  85 N12G21    30.17R VSB 1/4 WCI  20
OCEAN CITY     MIX PCPN  29  27  92 N16       30.15R FOG     WCI  17
WALLOPS ISLAND MIX PCPN  31  28  89 NE16      30.14R FOG     WCI  20
ACCOMACK*      MIX PCPN  32  30  93 N9G16     30.11F
$$

NCZ012>017-030>032-052300-
NORTH CENTRAL AND EASTERN NORTH CAROLINA

CITY           SKY/WX    TMP DP  RH WIND       PRES   REMARKS
ROANOKE RAPIDS LGT RAIN  34  34 100 N8        30.11R
RALEIGH        LGT RAIN  37  33  85 NE9G22    30.08R FOG
ELIZABETH CITY LGT RAIN  36  34  93 N14G24    30.13R
AHOSKIE*       MIX PCPN  34  33  96 N8        30.09F
EDENTON*       DRIZZLE   36  34  93 NE12G22   30.13R
CURRITUCK*     LGT SNOW  35  33  94 N15G21    30.12R
KILL DEVIL HLS DRIZZLE   35  35 100 N13G23    30.07R
MANTEO         CLOUDY    35  34  95 N21G36    30.08R WCI  24
CAPE HATTERAS  LGT RAIN  38  38 100 N17G36    30.01R FOG
TARBORO*       LGT SNOW  36  35  94 E9        30.06F
GOLDSBORO      LGT RAIN  37  37 100 E15G28    30.01F FOG
WASHINGTON     RAIN      37  35  92 N13G22    30.11R
GREENVILLE     LGT RAIN  36  36 100 NE12G17   30.14R
NEW BERN       LGT RAIN  40  35  83 N21G31    30.10R
WILMINGTON     CLOUDY    50  43  77 N22G39    30.01R
$$

VAZ048-052300-
ELSEWHERE

CITY           SKY/WX    TMP DP  RH WIND       PRES   REMARKS
HARRISBURG PA  CLOUDY    21  14  74 W3        30.26R
BALTIMORE      LGT SNOW  24  21  88 N6        30.23R FOG
ANNAPOLIS      SNOW      26  23  88 N12       30.25R VSB 1/2 WCI  16
ANDREWS AFB    LGT SNOW  25  23  93 N15       30.23R FOG     WCI  12
PHILADELPHIA   SNOW      20  16  84 N13       30.25R VSB 1/2 WCI   7
HENDERSON NC   DRIZZLE   34  32  93 NE14      30.09R WCI  24
GREENSBORO     LGT RAIN  36  33  89 NE15      30.09R
ROCKY MOUNT    LGT RAIN  37  35  92 NE12      30.08F FOG
$$

VAZ100-052300-
MARINE

STATION/POSITION TIME  TEMP    WIND        PRES    WAVE   SWELL
                       AIR SEA DIR/SP/G            HT/PER HT/PER
                 (UTC) (F)     (DEG/KT/KT) (MB)    (FT/S) (FT/S)
BRANDYWINE LGT   2200           10/ 20/ 22   N/A
CAPE MAY NJ      2200   26 34  350/ 12/ 19 1022.0R
LEWES DE         2200   26 32   10/ 17/ 20 1022.6R
15NM E FENWICK I 2200   30 35              1020.1R   5/ 6
OCEAN-CITY-INLET 2200           20/ 17/ 23   N/A
WACHAPREAGUE VA  2200   34 41  360/  5/ 10 1020.4R
THOMAS POINT MD  2200          360/ 20/ 23   N/A
COVE POINT MD    2200   27      30/ 11/ 14 1022.4R
SOLOMONS ISLAND  2200      33                N/A
BISHOPS HEAD MD  2200   29 33   10/ 12/ 17 1021.1F
CAMBRIDGE MD     2200   26 32   10/ 14/ 17 1022.4F
LEWISETTA VA     2200      34   10/  8/ 14 1021.0F
RAPPAHANNOCK LGT 2200           10/ 22/ 24 1019.9F
STINGRAY PT      2200   31      10/ 17/ 23   N/A
YORK RVR RNG VA  2200   33      20/ 20/ 24 1018.4F
YORKTOWN VA      2200   33 35   20/ 13/ 15 1019.3S
DOMINION TERM VA 2200   33      60/ 13/ 18 1018.1F
KIPTOPEKE VA     2200      40   30/  7/ 11   N/A
CHES BAY BRIDGE  2200          360/ 19/ 23   N/A
CAPE HENRY VA    2200   33     350/ 12/ 16 1018.1F
CHESAPEAKE LGHT  2100   33      20/ 33/ 36 1018.0F
WILLOUBY STN VA  2200           30/ 22/ 24   N/A
S CRANEY ISL VA  2200           50/ 18/ 22 1018.0F
CAPE HENRY BUOY  2200      36                N/A     7/ 6   2/11
1ST LANDING BUOY 2200   33     360/ 14/ 17 1019.4R
OFFSHORE WE BUOY 2200      37                N/A     8/ 7   2/13
64NM E OF VA BCH 2200   42 53  360/ 29/ 39 1015.8R  10/ 8
DUCK PIER NC     2200   34 36   10/ 23/ 26 1017.3R
44100 DUCK FRF   2200      38                N/A    10/ 7   2/11
44056 DUCK FRF   2200      36                N/A     7/ 7
OREGON INLET NC  2200   36 48  350/ 20/ 27 1017.3R
HATTERAS NC      2200      52   10/ 26/ 33 1016.3S
CAPE LOOKOUT NC  2200          360/ 20/ 23 1016.0R
$$



USA.gov is the U.S. government's official web portal to all federal, state and local government web resources and services.